Location: Prescott
(34.5400°N, 112.4680°W)
Time: 09:45:44
(UTC-07:00)

Amateur Radio Satellites - All Passes

Search period start: 25 July 2017 09:15
Search period end: 26 July 2017 09:15
Location: Prescott, 34.5400°N, 112.4680°W

Satellite Date Start Highest point End Downlink Frequencies (MHz)
Time Altitude Azimuth
DELFI C3 25 Jul 09:20:03 09:23:04 20° 95° (E) 09:26:04 145.870
FO-29 25 Jul 09:34:56 09:42:26 77° 258° (WSW) 09:50:22 435.910
UWE-3 25 Jul 09:39:55 09:42:32 16° 292° (WNW) 09:45:08 435.000/436.395/437.385
EO-88 25 Jul 09:43:34 09:46:28 22° 96° (E) 09:49:21 145.990 - 145.960
NO-84 25 Jul 09:48:57 09:51:29 27° 126° (SE) 09:54:09 435.350 FM
PRISM 25 Jul 09:49:54 09:53:59 85° 77° (ENE) 09:58:07 437.425
ZACube-1 25 Jul 09:52:36 09:55:45 21° 290° (WNW) 09:58:52 437.345
AAUSAT CUBESAT 2 25 Jul 09:56:47 09:57:51 11° 294° (WNW) 09:58:55 437.432
UNISAT 6 25 Jul 09:57:05 10:01:44 68° 258° (WSW) 10:06:19 437.425
Oscar 11 25 Jul 10:18:35 10:21:26 18° 292° (WNW) 10:24:18 .
QB50P2 25 Jul 10:32:20 10:34:47 15° 67° (ENE) 10:37:13 145.880/145.840
TIGRISAT 25 Jul 10:42:22 10:46:04 23° 264° (W) 10:49:45 435.000
EO-79 25 Jul 10:43:41 10:46:38 19° 69° (ENE) 10:49:36 145.935-145.965
NANOSAT C BR1 25 Jul 10:43:48 10:46:30 17° 68° (ENE) 10:49:10 145.865
M-CUBED/EXP-1 PRIME 25 Jul 10:45:44 10:48:50 28° 259° (W) 10:52:11 437.505
DELFI C3 25 Jul 10:54:31 10:57:44 24° 289° (WNW) 11:00:57 145.870
AIST 2D 25 Jul 11:00:09 11:03:36 69° 77° (ENE) 11:07:04 435.315
EO-88 25 Jul 11:17:29 11:19:57 17° 290° (WNW) 11:22:24 145.990 - 145.960
LO-87 25 Jul 11:19:44 11:23:13 47° 99° (E) 11:26:40 145.935 - 145.965
BEESAT 3 25 Jul 11:22:09 11:25:08 21° 110° (ESE) 11:28:08 437.485
FO-29 25 Jul 11:26:13 11:28:28 11° 274° (W) 11:30:46 435.910
ESTCUBE 1 25 Jul 11:26:19 11:30:26 34° 98° (E) 11:34:32 437.505/2401.250
NO-84 25 Jul 11:26:49 11:28:57 17° 324° (NW) 11:31:12 435.350 FM
DUCHIFAT 1 25 Jul 11:49:45 11:54:00 89° 257° (WSW) 11:58:14 145.980
POLYITAN 1 25 Jul 11:52:51 11:57:05 63° 259° (W) 12:01:19 437.675
BEESAT 2 25 Jul 12:02:59 12:05:46 19° 110° (ESE) 12:08:36 435.950
QB50P2 25 Jul 12:06:13 12:10:12 38° 261° (W) 12:14:12 145.880/145.840
VELOX 1 25 Jul 12:10:58 12:14:22 21° 96° (E) 12:17:44 145.980
BUGSAT 1 25 Jul 12:17:07 12:21:12 49° 75° (ENE) 12:25:18 437.445
NANOSAT C BR1 25 Jul 12:18:01 12:21:53 34° 262° (W) 12:25:47 145.865
EO-79 25 Jul 12:18:22 12:22:09 31° 263° (W) 12:25:56 145.935-145.965
AO-85 25 Jul 12:24:40 12:28:40 66° 300° (WNW) 12:32:35 145.980
SPROUT 25 Jul 12:58:07 13:02:24 85° 280° (W) 13:06:37 437.525
UKube-1 25 Jul 12:58:19 13:00:10 12° 93° (E) 13:02:01 .
BEESAT 3 25 Jul 12:59:06 13:02:31 27° 306° (NW) 13:05:58 437.485
Oscar 19 25 Jul 13:00:16 13:05:17 59° 74° (ENE) 13:10:20 437.125/150
ESTCUBE 1 25 Jul 13:03:47 13:06:57 19° 292° (WNW) 13:10:07 437.505/2401.250
RS-15 25 Jul 13:18:48 13:24:17 14° 96° (E) 13:29:47 29.354- 29.394
Gurwin Techsat 1B 25 Jul 13:29:29 13:34:46 73° 75° (ENE) 13:40:04 435.225
AO-7 25 Jul 13:29:56 13:35:27 20° 56° (NE) 13:40:59 .
BEESAT 2 25 Jul 13:39:47 13:43:17 29° 305° (NW) 13:46:51 435.950
O/OREOS (USA 219) 25 Jul 13:44:48 13:46:42 13° 99° (E) 13:48:37 437.305
PCSat 25 Jul 13:46:31 13:51:35 39° 58° (ENE) 13:56:38 145.827
VELOX 1 25 Jul 13:46:56 13:50:45 29° 289° (WNW) 13:54:34 145.980
SO-50 25 Jul 13:48:26 13:49:47 11° 45° (NE) 13:51:08 436.795
DX 1 25 Jul 13:50:23 13:54:48 88° 111° (ESE) 13:59:09 434.975-435.025
50 SAT 25 Jul 13:51:46 13:55:03 43° 285° (WNW) 13:58:17 437.505
BUGSAT 1 25 Jul 13:55:39 13:56:46 11° 268° (W) 13:57:54 437.445
UKube-1 25 Jul 14:32:14 14:36:23 45° 287° (WNW) 14:40:29 .
BEESAT 25 Jul 14:40:54 14:44:07 18° 95° (E) 14:47:20 436.000
Oscar 19 25 Jul 14:42:40 14:44:56 13° 268° (W) 14:47:12 437.125/150
ITAMSAT 1 25 Jul 14:52:45 14:57:48 51° 72° (ENE) 15:02:51 435.822/435.867
ITUPSAT 1 25 Jul 14:53:56 14:57:48 24° 96° (E) 15:01:39 437.325
Gurwin Techsat 1B 25 Jul 15:13:48 15:15:10 11° 269° (W) 15:16:31 435.225
AO-7 25 Jul 15:18:49 15:27:11 84° 252° (WSW) 15:35:37 .
O/OREOS (USA 219) 25 Jul 15:21:18 15:25:37 47° 293° (WNW) 15:29:57 437.305
RS-15 25 Jul 15:22:33 15:34:35 75° 114° (ESE) 15:46:55 29.354- 29.394
SO-50 25 Jul 15:26:14 15:30:48 83° 244° (WSW) 15:35:24 436.795
PCSat 25 Jul 15:30:28 15:34:42 24° 254° (WSW) 15:38:55 145.827
MOZHAYETS 4 25 Jul 15:36:08 15:40:37 56° 100° (E) 15:45:05
CUBESAT XI-V 25 Jul 16:12:36 16:16:28 25° 96° (E) 16:20:19 437.345
KKS-1 25 Jul 16:15:26 16:17:17 12° 93° (E) 16:19:08 437.445
BEESAT 25 Jul 16:17:35 16:21:58 38° 288° (WNW) 16:26:20 436.000
ITUPSAT 1 25 Jul 16:31:30 16:35:32 28° 290° (WNW) 16:39:34 437.325
ITAMSAT 1 25 Jul 16:34:21 16:37:29 16° 267° (W) 16:40:38 435.822/435.867
CUTE-I 25 Jul 16:46:39 16:49:35 15° 64° (ENE) 16:52:31 437.470
DOVE 4 25 Jul 16:53:46 16:58:23 46° 73° (ENE) 17:03:15 437.250
YUBILEINY 25 Jul 17:01:33 17:06:28 16° 79° (E) 17:11:23 435.215
XW-2D 25 Jul 17:11:48 17:14:42 22° 71° (ENE) 17:17:38 145.860 - 145.880
MOZHAYETS 4 25 Jul 17:15:29 17:17:14 12° 295° (WNW) 17:19:00
AO-7 25 Jul 17:17:17 17:20:52 13° 268° (W) 17:24:29 .
XW-2B 25 Jul 17:21:32 17:24:45 28° 72° (ENE) 17:27:58 145.730 - 145.750
RS-15 25 Jul 17:37:32 17:48:14 34° 317° (NW) 17:59:05 29.354- 29.394
XW-2C 25 Jul 17:38:27 17:42:04 48° 75° (ENE) 17:45:41 145.795 - 145.815
NUDT-PHONESAT 25 Jul 17:43:50 17:47:16 39° 75° (ENE) 17:50:44 437.300
HO-68 25 Jul 17:45:38 17:51:03 24° 62° (ENE) 17:56:26 435.675
KKS-1 25 Jul 17:49:45 17:54:03 48° 287° (WNW) 17:58:20 437.445
CUBESAT XI-V 25 Jul 17:49:48 17:53:43 27° 290° (WNW) 17:57:37 437.345
KAITUO 1B 25 Jul 17:58:56 18:02:36 69° 76° (ENE) 18:06:16 145.475/437.950
NO-84 25 Jul 18:01:02 18:04:52 49° 45° (NE) 18:08:57 435.350 FM
LilacSat-2 25 Jul 18:02:26 18:06:11 70° 258° (WSW) 18:09:56 437.200
CUTE 1.7 + AOD 2 25 Jul 18:13:41 18:16:42 20° 70° (ENE) 18:19:43 437.475
XW-2F 25 Jul 18:15:47 18:19:24 51° 260° (W) 18:23:03 145.980 - 146.000
STARS 25 Jul 18:17:39 18:21:59 59° 285° (WNW) 18:26:15 437.465
CUTE-I 25 Jul 18:23:44 18:29:02 62° 259° (WSW) 18:34:22 437.470
SEEDS 25 Jul 18:25:07 18:27:40 16° 69° (ENE) 18:30:15 437.485
DOVE 4 25 Jul 18:33:21 18:36:18 16° 269° (W) 18:39:21 437.250
ISS 25 Jul 18:44:50 18:45:49 11° 126° (SE) 18:46:48 437.550
XW-2D 25 Jul 18:46:04 18:48:47 19° 265° (W) 18:51:30 145.860 - 145.880
XW-2A 25 Jul 18:51:32 18:54:28 28° 73° (ENE) 18:57:25 145.665 - 145.685
YUBILEINY 25 Jul 18:53:12 19:02:03 84° 276° (W) 19:10:56 435.215
Tancredo 1 25 Jul 18:55:35 18:58:26 52° 134° (SE) 19:01:18 437.200
UWE-3 25 Jul 18:56:24 18:59:38 19° 69° (ENE) 19:02:50 435.000/436.395/437.385
XW-2B 25 Jul 18:56:46 18:58:56 15° 266° (W) 19:01:05 145.730 - 145.750
AAUSAT CUBESAT 2 25 Jul 19:05:58 19:09:04 21° 70° (ENE) 19:12:11 437.432
ZACube-1 25 Jul 19:09:36 19:11:54 14° 68° (ENE) 19:14:11 437.345
STRAND 1 25 Jul 19:16:44 19:21:14 31° 97° (E) 19:25:42 437.568
nSIGHT-1 25 Jul 19:24:10 19:27:07 34° 132° (SE) 19:30:05 .
HO-68 25 Jul 19:31:08 19:38:12 60° 258° (WSW) 19:45:17 435.675
Oscar 11 25 Jul 19:33:54 19:36:41 17° 69° (ENE) 19:39:28 .
CUBEBUG 2 25 Jul 19:34:30 19:39:14 88° 251° (WSW) 19:43:53 437.445
NO-84 25 Jul 19:39:29 19:42:08 17° 237° (WSW) 19:44:52 435.350 FM
AO-73 25 Jul 19:47:27 19:51:26 34° 73° (ENE) 19:55:22 145.935
CUTE 1.7 + AOD 2 25 Jul 19:48:44 19:52:19 27° 263° (W) 19:55:55 437.475
SEEDS 25 Jul 19:59:18 20:03:02 33° 262° (W) 20:06:49 437.485
RS-15 25 Jul 20:00:58 20:06:28 14° 350° (N) 20:11:56 29.354- 29.394
ISS 25 Jul 20:18:44 20:21:55 51° 320° (NW) 20:25:06 437.550
XW-2A 25 Jul 20:26:08 20:27:15 11° 266° (W) 20:28:21 145.665 - 145.685
UWE-3 25 Jul 20:31:40 20:35:50 33° 262° (W) 20:39:55 435.000/436.395/437.385
Tancredo 1 25 Jul 20:32:31 20:34:03 13° 330° (NNW) 20:35:34 437.200
AAUSAT CUBESAT 2 25 Jul 20:41:02 20:44:22 24° 264° (W) 20:47:43 437.432
ZACube-1 25 Jul 20:43:30 20:47:47 44° 261° (W) 20:51:59 437.345
FO-29 25 Jul 20:51:37 20:56:11 19° 89° (E) 21:00:24 435.910
YUBILEINY 25 Jul 20:55:49 21:00:07 14° 295° (WNW) 21:04:28 435.215
STRAND 1 25 Jul 20:56:05 21:00:14 26° 292° (WNW) 21:04:23 437.568
AO-85 25 Jul 20:58:26 21:02:22 35° 57° (ENE) 21:06:34 145.980
nSIGHT-1 25 Jul 21:01:07 21:03:35 20° 327° (NNW) 21:06:03 .
Oscar 11 25 Jul 21:08:37 21:12:31 33° 262° (W) 21:16:26 .
BEESAT 3 25 Jul 21:18:21 21:22:16 53° 59° (ENE) 21:26:06 437.485
AO-73 25 Jul 21:24:44 21:27:41 17° 266° (W) 21:30:37 145.935
DELFI C3 25 Jul 21:35:14 21:39:08 70° 259° (WSW) 21:43:05 145.870
PRISM 25 Jul 21:35:55 21:38:22 15° 94° (E) 21:40:47 437.425
EO-88 25 Jul 21:50:17 21:53:54 72° 259° (W) 21:57:32 145.990 - 145.960
UNISAT 6 25 Jul 21:52:44 21:56:33 31° 97° (E) 22:00:19 437.425
LO-87 25 Jul 21:54:07 21:55:34 12° 68° (ENE) 21:57:00 145.935 - 145.965
JUGNU 25 Jul 21:54:43 21:57:15 13° 166° (SSE) 21:59:48 437.505
BEESAT 2 25 Jul 22:00:01 22:03:58 49° 58° (ENE) 22:07:51 435.950
RS-15 25 Jul 22:18:02 22:26:20 20° 28° (NNE) 22:34:22 29.354- 29.394
ESTCUBE 1 25 Jul 22:22:56 22:26:15 21° 69° (ENE) 22:29:35 437.505/2401.250
M-CUBED/EXP-1 PRIME 25 Jul 22:26:41 22:30:32 25° 100° (E) 22:34:20 437.505
FO-29 25 Jul 22:34:56 22:41:48 59° 288° (WNW) 22:47:48 435.910
TIGRISAT 25 Jul 22:36:22 22:40:40 83° 281° (W) 22:44:54 435.000
AO-85 25 Jul 22:39:25 22:42:33 19° 249° (WSW) 22:45:50 145.980
VELOX 1 25 Jul 23:06:09 23:08:08 13° 66° (ENE) 23:10:05 145.980
PRISM 25 Jul 23:09:54 23:13:42 35° 288° (WNW) 23:17:28 437.425
LO-87 25 Jul 23:25:19 23:28:38 33° 262° (W) 23:31:58 145.935 - 145.965
UNISAT 6 25 Jul 23:30:04 23:33:00 18° 292° (WNW) 23:35:54 437.425
DUCHIFAT 1 25 Jul 23:38:09 23:41:03 18° 95° (E) 23:43:55 145.980
BEESAT 2 25 Jul 23:40:11 23:41:13 11° 253° (WSW) 23:42:13 435.950
JUGNU 25 Jul 23:41:30 23:45:34 19° 176° (S) 23:49:36 437.505
POLYITAN 1 25 Jul 23:41:33 23:45:04 26° 97° (E) 23:48:32 437.675
SPROUT 25 Jul 23:47:35 23:51:40 44° 74° (ENE) 23:55:46 437.525
QB50P2 25 Jul 23:54:16 23:58:16 41° 99° (E) 00:02:13 145.880/145.840
O/OREOS (USA 219) 25 Jul 23:56:46 23:59:23 15° 59° (ENE) 00:01:59 437.305
ESTCUBE 1 25 Jul 23:58:56 00:02:50 30° 263° (W) 00:06:46 437.505/2401.250
M-CUBED/EXP-1 PRIME 26 Jul 00:00:48 00:04:48 29° 294° (WNW) 00:08:48 437.505
AIST 2D 26 Jul 00:01:29 00:04:54 53° 284° (WNW) 00:08:19 435.315
NANOSAT C BR1 26 Jul 00:05:20 00:09:22 45° 99° (E) 00:13:21 145.865
EO-79 26 Jul 00:05:53 00:09:59 52° 100° (E) 00:14:04 145.935-145.965
50 SAT 26 Jul 00:19:34 00:22:34 30° 73° (ENE) 00:25:36 437.505
RS-15 26 Jul 00:29:58 00:41:57 64° 56° (ENE) 00:53:13 29.354- 29.394
VELOX 1 26 Jul 00:39:48 00:44:05 50° 260° (W) 00:48:24 145.980
DX 1 26 Jul 00:42:09 00:46:19 46° 73° (ENE) 00:50:31 434.975-435.025
SRMSAT 26 Jul 00:45:43 00:48:20 13° 167° (SSE) 00:50:56 437.500
DUCHIFAT 1 26 Jul 01:13:06 01:16:41 29° 289° (WNW) 01:20:16 145.980
Oscar 19 26 Jul 01:15:46 01:20:10 28° 97° (E) 01:24:33 437.125/150
POLYITAN 1 26 Jul 01:17:31 01:20:39 21° 290° (WNW) 01:23:47 437.675
UKube-1 26 Jul 01:22:32 01:26:51 88° 262° (W) 01:31:11 .
Tancredo 1 26 Jul 01:22:45 01:24:15 13° 30° (NNE) 01:25:44 437.200
SPROUT 26 Jul 01:25:52 01:27:44 13° 267° (W) 01:29:36 437.525
JUGNU 26 Jul 01:30:01 01:33:53 18° 187° (S) 01:37:45 437.505
QB50P2 26 Jul 01:31:33 01:33:39 14° 293° (WNW) 01:35:43 145.880/145.840
O/OREOS (USA 219) 26 Jul 01:34:43 01:38:59 44° 255° (WSW) 01:43:15 437.305
BUGSAT 1 26 Jul 01:37:27 01:41:27 56° 285° (WNW) 01:45:24 437.445
NANOSAT C BR1 26 Jul 01:42:54 01:44:37 12° 294° (WNW) 01:46:21 145.865
EO-79 26 Jul 01:44:08 01:45:14 11° 294° (WNW) 01:46:20 145.935-145.965
BEESAT 26 Jul 01:44:38 01:47:18 15° 65° (ENE) 01:49:59 436.000
Gurwin Techsat 1B 26 Jul 01:49:32 01:54:28 38° 98° (E) 01:59:22 435.225
50 SAT 26 Jul 01:54:37 01:55:22 11° 267° (W) 01:56:07 437.505
nSIGHT-1 26 Jul 01:55:26 01:56:52 12° 28° (NNE) 01:58:16 .
ITUPSAT 1 26 Jul 01:57:38 02:01:07 20° 68° (ENE) 02:04:37 437.325
DX 1 26 Jul 02:20:54 02:22:42 12° 267° (W) 02:24:29 434.975-435.025
SRMSAT 26 Jul 02:32:46 02:36:47 19° 177° (S) 02:40:46 437.500
MOZHAYETS 4 26 Jul 02:34:30 02:38:39 35° 72° (ENE) 02:42:47
RS-15 26 Jul 02:43:35 02:53:30 33° 256° (WSW) 03:03:03 29.354- 29.394
ISS 26 Jul 02:49:23 02:52:22 32° 37° (NE) 02:55:20 437.550
Oscar 19 26 Jul 02:54:57 02:59:22 29° 291° (WNW) 03:03:48 437.125/150
Tancredo 1 26 Jul 02:56:58 02:59:52 55° 225° (SW) 03:02:45 437.200
ITAMSAT 1 26 Jul 03:09:48 03:13:56 24° 96° (E) 03:18:02 435.822/435.867
CUBESAT XI-V 26 Jul 03:13:20 03:16:14 17° 67° (ENE) 03:19:08 437.345
BEESAT 26 Jul 03:20:00 03:24:37 49° 260° (W) 03:29:15 436.000
JUGNU 26 Jul 03:20:58 03:22:09 11° 196° (SSW) 03:23:20 437.505
AO-7 26 Jul 03:24:51 03:32:38 41° 100° (E) 03:40:20 .
Gurwin Techsat 1B 26 Jul 03:30:02 03:34:06 23° 293° (WNW) 03:38:12 435.225
nSIGHT-1 26 Jul 03:30:23 03:33:37 82° 227° (SW) 03:36:50 .
ITUPSAT 1 26 Jul 03:34:18 03:38:40 35° 262° (W) 03:43:03 437.325
MOZHAYETS 4 26 Jul 04:12:43 04:15:51 18° 266° (W) 04:18:59
SRMSAT 26 Jul 04:21:29 04:25:14 17° 187° (S) 04:29:00 437.500
PCSat 26 Jul 04:24:06 04:29:28 74° 114° (ESE) 04:34:54 145.827
ISS 26 Jul 04:26:18 04:28:39 18° 231° (SW) 04:31:00 437.550
KKS-1 26 Jul 04:43:39 04:48:07 84° 255° (WSW) 04:52:37 437.445
ITAMSAT 1 26 Jul 04:48:43 04:53:23 34° 290° (WNW) 04:58:01 435.822/435.867
CUBESAT XI-V 26 Jul 04:48:57 04:53:14 39° 262° (W) 04:57:34 437.345
DOVE 4 26 Jul 04:57:16 05:00:50 18° 92° (E) 05:04:17 437.250
YUBILEINY 26 Jul 05:08:18 05:16:27 41° 76° (ENE) 05:24:29 435.215
STARS 26 Jul 05:10:08 05:14:32 77° 76° (ENE) 05:18:58 437.465
AO-7 26 Jul 05:17:40 05:25:14 40° 296° (WNW) 05:32:45 .
SO-50 26 Jul 05:36:49 05:41:21 74° 117° (ESE) 05:45:51 436.795
LilacSat-2 26 Jul 05:40:09 05:42:24 15° 94° (E) 05:44:40 437.200
XW-2F 26 Jul 05:51:50 05:54:33 19° 95° (E) 05:57:16 145.980 - 146.000
PCSat 26 Jul 06:10:25 06:13:25 15° 311° (NW) 06:16:27 145.827
SRMSAT 26 Jul 06:13:36 06:13:39 10° 196° (SSW) 06:13:43 437.500
XW-2D 26 Jul 06:20:40 06:24:21 52° 100° (E) 06:28:02 145.860 - 145.880
STRAND 1 26 Jul 06:29:09 06:33:40 32° 70° (ENE) 06:38:10 437.568
XW-2B 26 Jul 06:30:42 06:34:28 70° 101° (E) 06:38:14 145.730 - 145.750
DOVE 4 26 Jul 06:33:43 06:38:40 43° 287° (WNW) 06:43:23 437.250
CUTE-I 26 Jul 06:44:18 06:49:40 72° 102° (ESE) 06:54:58 437.470
XW-2C 26 Jul 06:48:09 06:51:53 64° 284° (WNW) 06:55:37 145.795 - 145.815
NUDT-PHONESAT 26 Jul 06:50:52 06:54:33 84° 280° (W) 06:58:14 437.300
HO-68 26 Jul 07:03:04 07:09:23 33° 98° (E) 07:15:39 435.675
YUBILEINY 26 Jul 07:05:16 07:13:01 37° 273° (W) 07:20:44 435.215
KAITUO 1B 26 Jul 07:07:13 07:10:49 47° 285° (WNW) 07:14:24 145.475/437.950
LilacSat-2 26 Jul 07:13:25 07:16:41 28° 287° (WNW) 07:19:56 437.200
SO-50 26 Jul 07:20:29 07:22:17 12° 314° (NW) 07:24:05 436.795
XW-2F 26 Jul 07:25:40 07:28:35 22° 288° (WNW) 07:31:30 145.980 - 146.000
CUBEBUG 2 26 Jul 07:29:44 07:33:06 23° 95° (E) 07:36:25 437.445
CUTE 1.7 + AOD 2 26 Jul 07:36:07 07:40:21 62° 101° (E) 07:44:33 437.475
SEEDS 26 Jul 07:45:54 07:50:00 48° 99° (E) 07:54:06 437.485
XW-2A 26 Jul 07:48:41 07:51:56 49° 100° (E) 07:55:09 145.665 - 145.685
STRAND 1 26 Jul 08:08:34 08:12:47 25° 264° (W) 08:17:01 437.568
UWE-3 26 Jul 08:24:22 08:28:29 61° 100° (E) 08:32:34 435.000/436.395/437.385
AAUSAT CUBESAT 2 26 Jul 08:25:26 08:29:36 64° 101° (E) 08:33:44 437.432
CUTE-I 26 Jul 08:26:45 08:29:01 13° 297° (WNW) 08:31:17 437.470
ZACube-1 26 Jul 08:35:11 08:39:05 41° 98° (E) 08:43:00 437.345
FO-29 26 Jul 08:40:36 08:47:45 47° 69° (ENE) 08:55:10 435.910
UNISAT 6 26 Jul 08:48:20 08:51:42 20° 69° (ENE) 08:55:02 437.425
HO-68 26 Jul 08:50:31 08:57:04 41° 293° (WNW) 09:03:37 435.675
Oscar 11 26 Jul 08:58:42 09:02:56 54° 100° (E) 09:07:10 .
CUBEBUG 2 26 Jul 09:06:19 09:09:36 22° 290° (WNW) 09:12:50 437.445
M-CUBED/EXP-1 PRIME 26 Jul 09:10:35 09:12:34 14° 61° (ENE) 09:14:38 437.505
